Time,TemperatureF,DewpointF,PressureIn,WindDirection,WindDirectionDegrees,WindSpeedMPH,WindSpeedGustMPH,Humidity,HourlyPrecipIn,Conditions,Clouds,dailyrainin,SoftwareType,DateUTC
2013-09-13 00:01:00,60.1,59.8,29.91,North,0,0.0,0.0,99,0.07,,,0.00,pywws,2013-09-13 04:01:00,
2013-09-13 00:02:00,60.1,59.8,29.91,North,0,0.0,0.0,99,0.07,,,0.00,pywws,2013-09-13 04:02:00,
2013-09-13 00:04:00,60.1,59.8,29.91,North,0,0.0,0.0,99,0.07,,,0.00,pywws,2013-09-13 04:04:00,
2013-09-13 00:05:00,60.1,59.8,29.91,North,0,0.0,0.0,99,0.07,,,0.00,pywws,2013-09-13 04:05:00,
2013-09-13 00:06:00,60.1,59.8,29.91,North,0,0.0,0.0,99,0.07,,,0.00,pywws,2013-09-13 04:06:00,
2013-09-13 00:07:00,60.1,59.8,29.91,North,0,0.0,0.7,99,0.06,,,0.00,pywws,2013-09-13 04:07:00,
2013-09-13 00:13:00,59.9,59.6,29.91,East,90,0.0,0.0,99,0.06,,,0.00,pywws,2013-09-13 04:13:00,
2013-09-13 00:18:00,60.1,59.8,29.91,East,90,0.0,0.0,99,0.05,,,0.00,pywws,2013-09-13 04:18:00,
2013-09-13 00:24:00,60.1,59.8,29.91,East,90,0.0,0.0,99,0.05,,,0.00,pywws,2013-09-13 04:24:00,
2013-09-13 00:30:00,60.3,60.0,29.91,East,90,0.0,0.0,99,0.05,,,0.00,pywws,2013-09-13 04:30:00,
2013-09-13 00:35:00,60.3,60.0,29.91,South,180,0.0,0.0,99,0.05,,,0.00,pywws,2013-09-13 04:35:00,
2013-09-13 00:40:00,60.1,59.8,29.91,North,0,0.0,0.0,99,0.05,,,0.00,pywws,2013-09-13 04:40:00,
2013-09-13 00:45:00,60.1,59.8,29.91,North,0,0.0,0.0,99,0.05,,,0.00,pywws,2013-09-13 04:45:00,
2013-09-13 00:50:00,60.1,59.8,29.91,North,0,0.0,0.0,99,0.04,,,0.00,pywws,2013-09-13 04:50:00,
2013-09-13 00:55:00,59.7,59.4,29.91,North,0,0.0,0.0,99,0.01,,,0.00,pywws,2013-09-13 04:55:00,
2013-09-13 01:00:00,59.9,59.6,29.91,North,0,0.0,0.0,99,0.00,,,0.00,pywws,2013-09-13 05:00:00,
2013-09-13 01:05:00,59.9,59.6,29.91,North,0,0.0,0.0,99,0.00,,,0.00,pywws,2013-09-13 05:05:00,
2013-09-13 01:10:00,59.9,59.6,29.91,South,180,0.0,0.0,99,0.00,,,0.00,pywws,2013-09-13 05:10:00,
2013-09-13 01:15:00,59.5,59.3,29.91,North,0,0.0,0.7,99,0.00,,,0.00,pywws,2013-09-13 05:15:00,
2013-09-13 01:20:00,59.7,59.4,29.91,North,0,0.0,0.0,99,0.00,,,0.00,pywws,2013-09-13 05:20:00,
2013-09-13 01:25:00,59.5,59.3,29.90,North,0,0.0,0.0,99,0.00,,,0.00,pywws,2013-09-13 05:25:00,
2013-09-13 01:30:00,59.5,59.3,29.90,North,0,0.0,0.0,99,0.00,,,0.00,pywws,2013-09-13 05:30:00,
2013-09-13 01:35:00,59.5,59.3,29.90,North,0,0.0,0.0,99,0.00,,,0.00,pywws,2013-09-13 05:35:00,
2013-09-13 01:40:00,59.4,59.1,29.90,West,270,0.0,0.0,99,0.00,,,0.00,pywws,2013-09-13 05:40:00,
2013-09-13 01:45:00,59.4,59.1,29.91,East,90,0.7,1.6,99,0.00,,,0.00,pywws,2013-09-13 05:45:00,
2013-09-13 01:50:00,59.5,59.3,29.91,North,0,0.0,1.6,99,0.00,,,0.00,pywws,2013-09-13 05:50:00,
2013-09-13 01:55:00,59.4,59.1,29.91,North,0,0.0,1.6,99,0.00,,,0.00,pywws,2013-09-13 05:55:00,
2013-09-13 02:00:00,59.4,59.1,29.90,SE,135,0.0,0.7,99,0.00,,,0.00,pywws,2013-09-13 06:00:00,
2013-09-13 02:05:00,59.4,59.1,29.91,SE,135,0.0,0.7,99,0.00,,,0.00,pywws,2013-09-13 06:05:00,
2013-09-13 02:10:00,59.5,59.3,29.91,North,0,0.7,2.2,99,0.00,,,0.00,pywws,2013-09-13 06:10:00,
2013-09-13 02:15:00,59.5,59.0,29.91,North,0,1.6,2.2,98,0.00,,,0.00,pywws,2013-09-13 06:15:00,
2013-09-13 02:20:00,59.2,58.6,29.91,West,270,0.7,2.2,98,0.00,,,0.00,pywws,2013-09-13 06:20:00,
2013-09-13 02:25:00,59.5,58.7,29.91,North,0,0.0,1.6,97,0.00,,,0.00,pywws,2013-09-13 06:25:00,
2013-09-13 02:30:00,59.4,58.5,29.90,West,270,0.0,0.7,97,0.00,,,0.00,pywws,2013-09-13 06:30:00,
2013-09-13 02:35:00,59.4,58.2,29.90,West,270,0.7,1.6,96,0.00,,,0.00,pywws,2013-09-13 06:35:00,
2013-09-13 02:40:00,59.5,58.4,29.91,North,0,0.7,1.6,96,0.00,,,0.00,pywws,2013-09-13 06:40:00,
2013-09-13 02:45:00,59.5,58.4,29.90,North,0,1.6,2.2,96,0.00,,,0.00,pywws,2013-09-13 06:45:00,
2013-09-13 02:50:00,59.5,58.1,29.91,West,270,2.2,3.1,95,0.00,,,0.00,pywws,2013-09-13 06:50:00,
2013-09-13 02:55:00,59.5,58.4,29.90,North,0,0.0,0.7,96,0.00,,,0.00,pywws,2013-09-13 06:55:00,
2013-09-13 03:00:00,59.5,58.4,29.90,NW,315,0.7,2.2,96,0.00,,,0.00,pywws,2013-09-13 07:00:00,
2013-09-13 03:05:00,59.4,58.2,29.90,West,270,0.7,1.6,96,0.00,,,0.00,pywws,2013-09-13 07:05:00,
2013-09-13 03:10:00,59.5,57.8,29.90,West,270,1.6,2.2,94,0.00,,,0.00,pywws,2013-09-13 07:10:00,
2013-09-13 03:15:00,59.5,57.8,29.90,North,0,0.7,2.2,94,0.00,,,0.00,pywws,2013-09-13 07:15:00,
2013-09-13 03:20:00,59.5,57.5,29.90,North,0,0.7,3.1,93,0.00,,,0.00,pywws,2013-09-13 07:20:00,
2013-09-13 03:25:00,59.4,57.6,29.90,NW,315,1.6,3.8,94,0.00,,,0.00,pywws,2013-09-13 07:25:00,
2013-09-13 03:30:00,59.5,57.5,29.90,SW,225,1.6,3.1,93,0.00,,,0.00,pywws,2013-09-13 07:30:00,
2013-09-13 03:35:00,59.5,57.5,29.90,North,0,0.7,1.6,93,0.00,,,0.00,pywws,2013-09-13 07:35:00,
2013-09-13 03:40:00,59.4,57.3,29.91,SW,225,1.6,3.1,93,0.00,,,0.00,pywws,2013-09-13 07:40:00,
2013-09-13 03:45:00,59.5,57.5,29.90,North,0,0.0,2.2,93,0.00,,,0.00,pywws,2013-09-13 07:45:00,
2013-09-13 03:50:00,59.5,57.2,29.90,NW,315,0.7,3.1,92,0.00,,,0.00,pywws,2013-09-13 07:50:00,
2013-09-13 03:55:00,59.4,57.0,29.90,North,0,0.7,2.2,92,0.00,,,0.00,pywws,2013-09-13 07:55:00,
2013-09-13 04:00:00,59.5,57.2,29.91,North,0,0.7,1.6,92,0.00,,,0.00,pywws,2013-09-13 08:00:00,
2013-09-13 04:05:00,59.5,57.2,29.91,North,0,0.7,1.6,92,0.00,,,0.00,pywws,2013-09-13 08:05:00,
2013-09-13 04:10:00,59.5,57.5,29.91,West,270,0.7,1.6,93,0.00,,,0.00,pywws,2013-09-13 08:10:00,
2013-09-13 04:15:00,59.4,57.3,29.91,West,270,3.1,4.5,93,0.00,,,0.00,pywws,2013-09-13 08:15:00,
2013-09-13 04:20:00,59.5,57.2,29.91,North,0,0.0,0.7,92,0.00,,,0.00,pywws,2013-09-13 08:20:00,
2013-09-13 04:25:00,59.2,56.9,29.91,North,0,0.0,1.6,92,0.00,,,0.00,pywws,2013-09-13 08:25:00,
2013-09-13 04:30:00,59.4,56.7,29.91,North,0,2.2,3.8,91,0.00,,,0.00,pywws,2013-09-13 08:30:00,
2013-09-13 04:35:00,59.5,56.9,29.91,NW,315,2.2,3.8,91,0.00,,,0.00,pywws,2013-09-13 08:35:00,
2013-09-13 04:40:00,59.4,56.4,29.91,NW,315,0.0,0.7,90,0.00,,,0.00,pywws,2013-09-13 08:40:00,
2013-09-13 04:45:00,59.4,56.7,29.91,North,0,0.0,1.6,91,0.00,,,0.00,pywws,2013-09-13 08:45:00,
2013-09-13 04:50:00,59.2,56.2,29.91,NW,315,1.6,3.1,90,0.00,,,0.00,pywws,2013-09-13 08:50:00,
2013-09-13 04:55:00,59.4,56.7,29.91,North,0,0.0,0.7,91,0.00,,,0.00,pywws,2013-09-13 08:55:00,
2013-09-13 05:00:00,59.2,56.6,29.91,North,0,0.0,0.0,91,0.00,,,0.00,pywws,2013-09-13 09:00:00,
2013-09-13 05:05:00,59.4,56.7,29.91,SW,225,2.2,5.4,91,0.00,,,0.00,pywws,2013-09-13 09:05:00,
2013-09-13 05:10:00,59.2,56.2,29.91,West,270,0.0,2.2,90,0.00,,,0.00,pywws,2013-09-13 09:10:00,
2013-09-13 05:15:00,59.2,56.2,29.91,West,270,3.8,6.0,90,0.00,,,0.00,pywws,2013-09-13 09:15:00,
2013-09-13 05:20:00,59.2,56.2,29.91,West,270,0.7,2.2,90,0.00,,,0.00,pywws,2013-09-13 09:20:00,
2013-09-13 05:25:00,59.2,56.2,29.91,North,0,1.6,3.8,90,0.00,,,0.00,pywws,2013-09-13 09:25:00,
2013-09-13 05:30:00,59.2,55.9,29.91,West,270,1.6,2.2,89,0.00,,,0.00,pywws,2013-09-13 09:30:00,
2013-09-13 05:35:00,59.2,55.9,29.91,SW,225,0.0,1.6,89,0.00,,,0.00,pywws,2013-09-13 09:35:00,
2013-09-13 05:40:00,59.2,55.9,29.91,North,0,2.2,4.5,89,0.00,,,0.00,pywws,2013-09-13 09:40:00,
2013-09-13 05:45:00,59.2,55.6,29.91,West,270,0.0,1.6,88,0.00,,,0.00,pywws,2013-09-13 09:45:00,
2013-09-13 05:50:00,59.0,55.4,29.91,NW,315,0.7,1.6,88,0.00,,,0.00,pywws,2013-09-13 09:50:00,
2013-09-13 05:55:00,59.2,55.6,29.91,North,0,0.7,1.6,88,0.00,,,0.00,pywws,2013-09-13 09:55:00,
2013-09-13 06:00:00,59.0,55.4,29.91,North,0,3.1,4.5,88,0.00,,,0.00,pywws,2013-09-13 10:00:00,
2013-09-13 06:05:00,59.0,55.4,29.92,North,0,3.1,4.5,88,0.00,,,0.00,pywws,2013-09-13 10:05:00,
2013-09-13 06:10:00,58.8,55.3,29.92,North,0,0.7,2.2,88,0.00,,,0.00,pywws,2013-09-13 10:10:00,
2013-09-13 06:15:00,58.8,55.3,29.92,West,270,2.2,3.1,88,0.00,,,0.00,pywws,2013-09-13 10:15:00,
2013-09-13 06:20:00,58.6,55.1,29.92,North,0,0.7,3.1,88,0.00,,,0.00,pywws,2013-09-13 10:20:00,
2013-09-13 06:25:00,58.6,55.1,29.92,NW,315,0.0,1.6,88,0.00,,,0.00,pywws,2013-09-13 10:25:00,
2013-09-13 06:30:00,58.5,55.2,29.92,West,270,3.1,5.4,89,0.00,,,0.00,pywws,2013-09-13 10:30:00,
2013-09-13 06:35:00,58.5,54.9,29.92,NW,315,2.2,3.8,88,0.00,,,0.00,pywws,2013-09-13 10:35:00,
2013-09-13 06:40:00,58.5,55.2,29.93,North,0,2.2,5.4,89,0.00,,,0.00,pywws,2013-09-13 10:40:00,
2013-09-13 06:45:00,58.5,54.9,29.92,West,270,2.2,3.8,88,0.00,,,0.00,pywws,2013-09-13 10:45:00,
2013-09-13 06:50:00,58.5,55.2,29.93,North,0,0.7,2.2,89,0.00,,,0.00,pywws,2013-09-13 10:50:00,
2013-09-13 06:55:00,58.5,55.5,29.93,West,270,0.7,1.6,90,0.00,,,0.00,pywws,2013-09-13 10:55:00,
2013-09-13 07:00:00,58.5,55.5,29.93,North,0,0.7,2.2,90,0.00,,,0.00,pywws,2013-09-13 11:00:00,
2013-09-13 07:05:00,58.5,55.5,29.93,North,0,1.6,2.2,90,0.00,,,0.00,pywws,2013-09-13 11:05:00,
2013-09-13 07:10:00,58.5,55.5,29.93,West,270,0.7,3.1,90,0.00,,,0.00,pywws,2013-09-13 11:10:00,
2013-09-13 07:15:00,58.6,55.7,29.93,North,0,3.8,5.4,90,0.00,,,0.00,pywws,2013-09-13 11:15:00,
2013-09-13 07:20:00,58.8,55.6,29.93,West,270,1.6,2.2,89,0.00,,,0.00,pywws,2013-09-13 11:20:00,
2013-09-13 07:25:00,58.8,55.6,29.93,North,0,0.7,2.2,89,0.00,,,0.00,pywws,2013-09-13 11:25:00,
2013-09-13 07:30:00,59.0,55.4,29.93,North,0,3.8,5.4,88,0.00,,,0.00,pywws,2013-09-13 11:30:00,
2013-09-13 07:35:00,58.8,55.3,29.93,NW,315,2.2,3.8,88,0.00,,,0.00,pywws,2013-09-13 11:35:00,
2013-09-13 07:40:00,58.8,55.6,29.93,South,180,0.0,1.6,89,0.00,,,0.00,pywws,2013-09-13 11:40:00,
2013-09-13 07:45:00,59.0,55.8,29.94,West,270,1.6,2.2,89,0.00,,,0.00,pywws,2013-09-13 11:45:00,
2013-09-13 07:50:00,59.0,55.8,29.94,North,0,3.8,7.6,89,0.00,,,0.00,pywws,2013-09-13 11:50:00,
2013-09-13 07:55:00,59.0,55.8,29.94,NW,315,1.6,3.8,89,0.00,,,0.00,pywws,2013-09-13 11:55:00,
2013-09-13 08:00:00,59.0,55.8,29.94,South,180,4.5,9.2,89,0.00,,,0.00,pywws,2013-09-13 12:00:00,
2013-09-13 08:05:00,59.0,55.8,29.94,South,180,4.5,9.2,89,0.00,,,0.00,pywws,2013-09-13 12:05:00,
2013-09-13 08:10:00,58.8,55.9,29.94,North,0,3.1,5.4,90,0.00,,,0.00,pywws,2013-09-13 12:10:00,
2013-09-13 08:15:00,59.0,55.1,29.93,North,0,0.0,1.6,87,0.00,,,0.00,pywws,2013-09-13 12:15:00,
2013-09-13 08:20:00,59.0,55.1,29.94,West,270,0.7,3.1,87,0.00,,,0.00,pywws,2013-09-13 12:20:00,
2013-09-13 08:25:00,58.8,55.3,29.94,East,90,2.2,5.4,88,0.00,,,0.00,pywws,2013-09-13 12:25:00,
2013-09-13 08:30:00,59.0,54.8,29.94,West,270,2.2,3.8,86,0.00,,,0.00,pywws,2013-09-13 12:30:00,
2013-09-13 08:35:00,59.0,54.8,29.94,North,0,2.2,3.8,86,0.00,,,0.00,pywws,2013-09-13 12:35:00,
2013-09-13 08:40:00,59.0,55.1,29.94,South,180,2.2,3.1,87,0.00,,,0.00,pywws,2013-09-13 12:40:00,
2013-09-13 08:45:00,59.2,54.7,29.94,North,0,2.2,3.8,85,0.00,,,0.00,pywws,2013-09-13 12:45:00,
2013-09-13 08:50:00,59.4,54.2,29.94,North,0,0.0,0.0,83,0.00,,,0.00,pywws,2013-09-13 12:50:00,
2013-09-13 08:55:00,59.5,54.4,29.94,NE,45,0.7,3.1,83,0.00,,,0.00,pywws,2013-09-13 12:55:00,
2013-09-13 09:00:00,59.2,54.0,29.94,West,270,3.1,4.5,83,0.00,,,0.00,pywws,2013-09-13 13:00:00,
2013-09-13 09:05:00,59.2,54.0,29.95,West,270,2.2,4.5,83,0.00,,,0.00,pywws,2013-09-13 13:05:00,
2013-09-13 09:10:00,59.2,54.0,29.94,North,0,3.1,4.5,83,0.00,,,0.00,pywws,2013-09-13 13:10:00,
2013-09-13 09:15:00,59.4,53.5,29.95,North,0,1.6,3.1,81,0.00,,,0.00,pywws,2013-09-13 13:15:00,
2013-09-13 09:20:00,59.5,53.4,29.95,SE,135,0.0,1.6,80,0.00,,,0.00,pywws,2013-09-13 13:20:00,
2013-09-13 09:25:00,59.4,53.9,29.95,North,0,1.6,2.2,82,0.00,,,0.00,pywws,2013-09-13 13:25:00,
2013-09-13 09:30:00,59.2,53.7,29.95,North,0,0.7,3.1,82,0.00,,,0.00,pywws,2013-09-13 13:30:00,
2013-09-13 09:35:00,59.2,52.3,29.96,SW,225,1.6,3.1,78,0.00,,,0.00,pywws,2013-09-13 13:35:00,
2013-09-13 09:40:00,59.4,52.8,29.96,North,0,1.6,3.1,79,0.00,,,0.00,pywws,2013-09-13 13:40:00,
2013-09-13 09:45:00,59.0,52.1,29.96,North,0,1.6,4.5,78,0.00,,,0.00,pywws,2013-09-13 13:45:00,
2013-09-13 09:50:00,59.0,51.8,29.96,NE,45,2.2,3.1,77,0.00,,,0.00,pywws,2013-09-13 13:50:00,
2013-09-13 09:55:00,59.2,52.3,29.96,West,270,2.2,5.4,78,0.00,,,0.00,pywws,2013-09-13 13:55:00,
2013-09-13 10:00:00,59.2,52.0,29.96,North,0,3.8,6.9,77,0.00,,,0.00,pywws,2013-09-13 14:00:00,
2013-09-13 10:05:00,59.2,52.0,29.96,North,0,3.8,6.9,77,0.00,,,0.00,pywws,2013-09-13 14:05:00,
2013-09-13 10:10:00,58.5,53.3,29.96,NW,315,0.7,3.8,83,0.00,,,0.00,pywws,2013-09-13 14:10:00,
2013-09-13 10:15:00,57.9,53.8,29.97,East,90,1.6,3.8,86,0.00,,,0.00,pywws,2013-09-13 14:15:00,
2013-09-13 10:20:00,57.7,53.9,29.98,North,0,0.7,2.2,87,0.00,,,0.00,pywws,2013-09-13 14:20:00,
2013-09-13 10:25:00,57.2,54.0,29.98,North,0,4.5,6.0,89,0.01,,,0.01,pywws,2013-09-13 14:25:00,
2013-09-13 10:30:00,55.4,53.4,29.98,North,0,2.2,4.5,93,0.05,,,0.05,pywws,2013-09-13 14:30:00,
2013-09-13 10:35:00,55.2,54.1,29.98,North,0,0.7,1.6,96,0.06,,,0.06,pywws,2013-09-13 14:35:00,
2013-09-13 10:40:00,55.2,54.4,29.98,South,180,1.6,3.8,97,0.06,,,0.06,pywws,2013-09-13 14:40:00,
2013-09-13 10:45:00,55.6,55.3,29.98,North,0,0.7,2.2,99,0.06,,,0.06,pywws,2013-09-13 14:45:00,
2013-09-13 10:50:00,55.0,54.2,29.99,North,0,2.2,5.4,97,0.07,,,0.07,pywws,2013-09-13 14:50:00,
2013-09-13 10:55:00,54.7,53.8,29.99,East,90,1.6,3.1,97,0.08,,,0.08,pywws,2013-09-13 14:55:00,
2013-09-13 11:00:00,54.9,54.0,29.99,North,0,0.7,2.2,97,0.08,,,0.08,pywws,2013-09-13 15:00:00,
2013-09-13 11:05:00,54.5,53.7,29.99,North,0,1.6,3.1,97,0.09,,,0.09,pywws,2013-09-13 15:05:00,
2013-09-13 11:10:00,54.9,54.0,29.99,North,0,0.0,0.0,97,0.09,,,0.09,pywws,2013-09-13 15:10:00,
2013-09-13 11:15:00,55.4,55.1,29.99,NW,315,0.0,1.6,99,0.09,,,0.09,pywws,2013-09-13 15:15:00,
2013-09-13 11:20:00,55.4,55.1,29.99,North,0,0.0,0.7,99,0.11,,,0.11,pywws,2013-09-13 15:20:00,
2013-09-13 11:25:00,55.2,54.4,29.99,North,0,0.0,1.6,97,0.09,,,0.11,pywws,2013-09-13 15:25:00,
2013-09-13 11:30:00,55.9,55.4,30.00,East,90,0.0,0.0,98,0.06,,,0.11,pywws,2013-09-13 15:30:00,
2013-09-13 11:35:00,55.2,54.4,30.00,North,0,0.7,1.6,97,0.05,,,0.11,pywws,2013-09-13 15:35:00,
2013-09-13 11:40:00,55.8,54.9,30.00,East,90,0.7,3.1,97,0.05,,,0.11,pywws,2013-09-13 15:40:00,
2013-09-13 11:45:00,55.6,53.9,30.00,NE,45,2.2,3.8,94,0.05,,,0.11,pywws,2013-09-13 15:45:00,
2013-09-13 11:50:00,55.2,52.9,30.00,East,90,1.6,2.2,92,0.04,,,0.11,pywws,2013-09-13 15:50:00,
2013-09-13 11:55:00,54.9,52.6,30.00,NE,45,2.2,3.8,92,0.02,,,0.11,pywws,2013-09-13 15:55:00,
2013-09-13 12:00:00,55.2,52.6,30.00,NE,45,3.1,4.5,91,0.02,,,0.11,pywws,2013-09-13 16:00:00,
2013-09-13 12:05:00,55.2,52.6,30.00,NE,45,3.1,4.5,91,0.01,,,0.11,pywws,2013-09-13 16:05:00,
2013-09-13 12:10:00,55.8,52.9,30.01,North,0,0.7,2.2,90,0.01,,,0.11,pywws,2013-09-13 16:10:00,
2013-09-13 12:15:00,55.8,52.9,30.01,North,0,0.7,2.2,90,0.01,,,0.11,pywws,2013-09-13 16:15:00,
2013-09-13 12:20:00,56.1,52.9,30.01,North,0,0.0,0.7,89,0.00,,,0.11,pywws,2013-09-13 16:20:00,
2013-09-13 12:25:00,55.9,52.7,30.01,North,0,0.0,0.7,89,0.00,,,0.11,pywws,2013-09-13 16:25:00,
2013-09-13 12:30:00,56.3,53.1,30.01,North,0,0.0,1.6,89,0.00,,,0.11,pywws,2013-09-13 16:30:00,
2013-09-13 12:35:00,56.5,53.0,30.00,West,270,0.0,0.0,88,0.00,,,0.11,pywws,2013-09-13 16:35:00,
2013-09-13 12:40:00,56.5,52.7,30.01,North,0,1.6,1.6,87,0.00,,,0.11,pywws,2013-09-13 16:40:00,
2013-09-13 12:45:00,56.7,52.8,30.01,North,0,2.2,4.5,87,0.00,,,0.11,pywws,2013-09-13 16:45:00,
2013-09-13 12:50:00,56.8,53.0,30.01,East,90,3.1,3.8,87,0.00,,,0.11,pywws,2013-09-13 16:50:00,
2013-09-13 12:55:00,56.5,52.0,30.01,East,90,2.2,3.8,85,0.00,,,0.11,pywws,2013-09-13 16:55:00,
2013-09-13 13:00:00,56.5,51.4,30.01,North,0,0.0,1.6,83,0.00,,,0.11,pywws,2013-09-13 17:00:00,
2013-09-13 13:05:00,56.5,51.4,30.01,North,0,2.2,5.4,83,0.00,,,0.11,pywws,2013-09-13 17:05:00,
2013-09-13 13:10:00,56.5,50.7,30.01,North,0,2.2,4.5,81,0.00,,,0.11,pywws,2013-09-13 17:10:00,
2013-09-13 13:15:00,56.5,51.7,30.01,South,180,0.7,2.2,84,0.00,,,0.11,pywws,2013-09-13 17:15:00,
2013-09-13 13:20:00,56.7,51.2,30.01,NE,45,3.8,6.0,82,0.00,,,0.11,pywws,2013-09-13 17:20:00,
2013-09-13 13:25:00,57.0,51.2,30.01,North,0,0.7,2.2,81,0.00,,,0.11,pywws,2013-09-13 17:25:00,
2013-09-13 13:30:00,56.8,51.4,30.01,North,0,0.7,3.1,82,0.00,,,0.11,pywws,2013-09-13 17:30:00,
2013-09-13 13:35:00,57.6,51.8,30.01,North,0,0.0,0.0,81,0.00,,,0.11,pywws,2013-09-13 17:35:00,
2013-09-13 13:40:00,57.6,51.4,30.00,North,0,3.1,4.5,80,0.00,,,0.11,pywws,2013-09-13 17:40:00,
2013-09-13 13:45:00,58.1,51.3,30.00,North,0,1.6,3.8,78,0.00,,,0.11,pywws,2013-09-13 17:45:00,
2013-09-13 13:50:00,58.1,50.2,30.00,North,0,1.6,3.1,75,0.00,,,0.11,pywws,2013-09-13 17:50:00,
2013-09-13 13:55:00,58.6,50.4,30.01,SW,225,1.6,3.1,74,0.00,,,0.11,pywws,2013-09-13 17:55:00,
2013-09-13 14:00:00,58.5,49.8,30.00,North,0,2.2,4.5,73,0.00,,,0.11,pywws,2013-09-13 18:00:00,
2013-09-13 14:05:00,58.5,49.8,30.00,North,0,2.2,4.5,73,0.00,,,0.11,pywws,2013-09-13 18:05:00,
2013-09-13 14:10:00,59.0,48.8,30.00,North,0,1.6,3.8,69,0.00,,,0.11,pywws,2013-09-13 18:10:00,
2013-09-13 14:15:00,59.0,48.5,30.00,North,0,1.6,5.4,68,0.00,,,0.11,pywws,2013-09-13 18:15:00,
2013-09-13 14:20:00,59.0,49.6,30.00,North,0,3.1,4.5,71,0.00,,,0.11,pywws,2013-09-13 18:20:00,
2013-09-13 14:25:00,59.0,49.6,30.00,North,0,2.2,6.9,71,0.00,,,0.11,pywws,2013-09-13 18:25:00,
2013-09-13 14:30:00,58.3,48.9,30.00,North,0,1.6,3.1,71,0.00,,,0.11,pywws,2013-09-13 18:30:00,
2013-09-13 14:35:00,58.5,49.8,30.00,North,0,2.2,7.6,73,0.00,,,0.11,pywws,2013-09-13 18:35:00,
2013-09-13 14:40:00,58.3,50.0,30.00,North,0,3.8,7.6,74,0.00,,,0.11,pywws,2013-09-13 18:40:00,
2013-09-13 14:45:00,58.5,50.2,30.00,North,0,1.6,3.1,74,0.00,,,0.11,pywws,2013-09-13 18:45:00,
2013-09-13 14:50:00,59.4,50.7,30.00,North,0,1.6,3.8,73,0.00,,,0.11,pywws,2013-09-13 18:50:00,
2013-09-13 14:55:00,61.0,51.5,30.00,West,270,0.7,2.2,71,0.00,,,0.11,pywws,2013-09-13 18:55:00,
2013-09-13 15:00:00,60.1,49.5,30.00,West,270,0.7,2.2,68,0.00,,,0.11,pywws,2013-09-13 19:00:00,
2013-09-13 15:05:00,60.1,50.3,30.00,North,0,0.7,2.2,70,0.00,,,0.11,pywws,2013-09-13 19:05:00,
2013-09-13 15:10:00,59.9,50.1,30.00,NW,315,1.6,3.8,70,0.00,,,0.11,pywws,2013-09-13 19:10:00,
2013-09-13 15:15:00,59.4,50.0,30.00,South,180,3.1,4.5,71,0.00,,,0.11,pywws,2013-09-13 19:15:00,
2013-09-13 15:20:00,59.2,50.2,30.00,North,0,2.2,5.4,72,0.00,,,0.11,pywws,2013-09-13 19:20:00,
2013-09-13 15:25:00,59.4,49.2,30.00,NE,45,1.6,3.1,69,0.00,,,0.11,pywws,2013-09-13 19:25:00,
2013-09-13 15:30:00,60.3,49.7,30.01,NE,45,3.8,6.0,68,0.00,,,0.11,pywws,2013-09-13 19:30:00,
2013-09-13 15:35:00,60.8,48.5,30.00,West,270,3.1,6.0,64,0.00,,,0.11,pywws,2013-09-13 19:35:00,
2013-09-13 15:40:00,60.6,49.2,30.00,NW,315,3.1,4.5,66,0.00,,,0.11,pywws,2013-09-13 19:40:00,
2013-09-13 15:45:00,60.4,48.6,30.00,North,0,2.2,5.4,65,0.00,,,0.11,pywws,2013-09-13 19:45:00,
2013-09-13 15:50:00,60.4,49.0,30.00,North,0,0.0,1.6,66,0.00,,,0.11,pywws,2013-09-13 19:50:00,
2013-09-13 15:55:00,60.1,47.9,30.00,NW,315,2.2,3.1,64,0.00,,,0.11,pywws,2013-09-13 19:55:00,
2013-09-13 16:00:00,59.7,47.9,30.00,West,270,2.2,4.5,65,0.00,,,0.11,pywws,2013-09-13 20:00:00,
2013-09-13 16:05:00,59.7,47.9,30.01,West,270,2.2,4.5,65,0.00,,,0.11,pywws,2013-09-13 20:05:00,
2013-09-13 16:10:00,60.3,48.4,30.01,West,270,3.1,5.4,65,0.00,,,0.11,pywws,2013-09-13 20:10:00,
2013-09-13 16:15:00,59.4,48.0,30.01,NW,315,2.2,4.5,66,0.00,,,0.11,pywws,2013-09-13 20:15:00,
2013-09-13 16:20:00,59.0,48.1,30.01,North,0,1.6,3.1,67,0.00,,,0.11,pywws,2013-09-13 20:20:00,
2013-09-13 16:25:00,59.2,49.0,30.01,NW,315,0.7,2.2,69,0.00,,,0.11,pywws,2013-09-13 20:25:00,
2013-09-13 16:30:00,59.2,49.8,30.01,West,270,3.1,6.9,71,0.00,,,0.11,pywws,2013-09-13 20:30:00,
2013-09-13 16:35:00,58.8,49.8,30.01,SE,135,2.2,4.5,72,0.00,,,0.11,pywws,2013-09-13 20:35:00,
2013-09-13 16:40:00,59.0,48.5,30.01,NW,315,3.8,6.0,68,0.00,,,0.11,pywws,2013-09-13 20:40:00,
2013-09-13 16:45:00,58.8,48.3,30.01,North,0,2.2,3.1,68,0.00,,,0.11,pywws,2013-09-13 20:45:00,
2013-09-13 16:50:00,59.0,48.5,30.01,West,270,3.1,6.9,68,0.00,,,0.11,pywws,2013-09-13 20:50:00,
2013-09-13 16:55:00,58.8,49.1,30.01,SE,135,0.7,3.1,70,0.00,,,0.11,pywws,2013-09-13 20:55:00,
2013-09-13 17:00:00,58.6,49.3,30.01,North,0,1.6,4.5,71,0.00,,,0.11,pywws,2013-09-13 21:00:00,
2013-09-13 17:05:00,58.5,49.5,30.01,North,0,1.6,3.1,72,0.00,,,0.11,pywws,2013-09-13 21:05:00,
2013-09-13 17:10:00,58.5,49.1,30.02,West,270,2.2,4.5,71,0.00,,,0.11,pywws,2013-09-13 21:10:00,
2013-09-13 17:15:00,58.1,49.1,30.02,North,0,3.1,5.4,72,0.00,,,0.11,pywws,2013-09-13 21:15:00,
2013-09-13 17:20:00,58.1,49.5,30.02,North,0,0.7,2.2,73,0.00,,,0.11,pywws,2013-09-13 21:20:00,
2013-09-13 17:25:00,58.1,49.9,30.02,SE,135,0.0,2.2,74,0.00,,,0.11,pywws,2013-09-13 21:25:00,
2013-09-13 17:30:00,58.3,50.0,30.02,West,270,2.2,5.4,74,0.00,,,0.11,pywws,2013-09-13 21:30:00,
2013-09-13 17:35:00,57.9,48.9,30.02,NE,45,1.6,3.8,72,0.00,,,0.11,pywws,2013-09-13 21:35:00,
2013-09-13 17:40:00,57.9,48.6,30.02,NW,315,1.6,2.2,71,0.00,,,0.11,pywws,2013-09-13 21:40:00,
2013-09-13 17:45:00,57.7,47.2,30.02,SE,135,1.6,2.2,68,0.00,,,0.11,pywws,2013-09-13 21:45:00,
2013-09-13 17:50:00,57.9,47.8,30.02,South,180,0.0,0.7,69,0.00,,,0.11,pywws,2013-09-13 21:50:00,
2013-09-13 17:55:00,57.7,47.6,30.02,North,0,0.7,2.2,69,0.00,,,0.11,pywws,2013-09-13 21:55:00,
2013-09-13 18:00:00,58.1,48.0,30.02,West,270,1.6,3.1,69,0.00,,,0.11,pywws,2013-09-13 22:00:00,
2013-09-13 18:05:00,57.9,47.8,30.02,East,90,0.0,2.2,69,0.00,,,0.11,pywws,2013-09-13 22:05:00,
2013-09-13 18:10:00,58.1,48.7,30.02,North,0,1.6,2.2,71,0.00,,,0.11,pywws,2013-09-13 22:10:00,
2013-09-13 18:15:00,57.7,49.1,30.02,West,270,2.2,4.5,73,0.00,,,0.11,pywws,2013-09-13 22:15:00,
2013-09-13 18:21:00,57.6,48.2,30.03,North,0,2.2,5.4,71,0.00,,,0.11,pywws,2013-09-13 22:21:00,
2013-09-13 18:26:00,57.6,47.5,30.03,North,0,1.6,3.8,69,0.00,,,0.11,pywws,2013-09-13 22:26:00,
2013-09-13 18:32:00,57.2,47.9,30.03,North,0,2.2,6.0,71,0.00,,,0.11,pywws,2013-09-13 22:32:00,
2013-09-13 18:38:00,57.2,48.6,30.03,North,0,1.6,3.1,73,0.00,,,0.11,pywws,2013-09-13 22:38:00,
2013-09-13 18:43:00,56.8,49.0,30.03,North,0,0.7,2.2,75,0.00,,,0.11,pywws,2013-09-13 22:43:00,
2013-09-13 18:49:00,56.8,49.0,30.03,North,0,1.6,5.4,75,0.00,,,0.11,pywws,2013-09-13 22:49:00,
2013-09-13 18:54:00,56.5,48.3,30.03,West,270,0.7,3.1,74,0.00,,,0.11,pywws,2013-09-13 22:54:00,
2013-09-13 19:00:00,56.5,48.7,30.03,North,0,1.6,2.2,75,0.00,,,0.11,pywws,2013-09-13 23:00:00,
2013-09-13 19:05:00,56.3,48.5,30.04,West,270,0.7,2.2,75,0.00,,,0.11,pywws,2013-09-13 23:05:00,
2013-09-13 19:10:00,56.5,48.7,30.04,North,0,2.2,3.8,75,0.00,,,0.11,pywws,2013-09-13 23:10:00,
2013-09-13 19:15:00,56.3,48.8,30.04,North,0,0.0,1.6,76,0.00,,,0.11,pywws,2013-09-13 23:15:00,
2013-09-13 19:20:00,56.3,49.2,30.04,East,90,3.8,7.6,77,0.00,,,0.11,pywws,2013-09-13 23:20:00,
2013-09-13 19:25:00,55.9,48.5,30.04,North,0,2.2,3.1,76,0.00,,,0.11,pywws,2013-09-13 23:25:00,
2013-09-13 19:30:00,55.8,47.6,30.05,North,0,3.8,6.9,74,0.00,,,0.11,pywws,2013-09-13 23:30:00,
2013-09-13 19:35:00,55.8,47.2,30.04,NW,315,2.2,4.5,73,0.00,,,0.11,pywws,2013-09-13 23:35:00,
2013-09-13 19:40:00,55.8,46.9,30.05,West,270,2.2,4.5,72,0.00,,,0.11,pywws,2013-09-13 23:40:00,
2013-09-13 19:45:00,55.6,46.7,30.05,North,0,2.2,5.4,72,0.00,,,0.11,pywws,2013-09-13 23:45:00,
2013-09-13 19:50:00,55.8,47.6,30.05,NE,45,0.7,3.1,74,0.00,,,0.11,pywws,2013-09-13 23:50:00,
2013-09-13 19:55:00,55.8,48.0,30.05,North,0,1.6,3.1,75,0.00,,,0.11,pywws,2013-09-13 23:55:00,
2013-09-13 20:00:00,55.6,47.8,30.05,NE,45,0.7,1.6,75,0.00,,,0.11,pywws,2013-09-14 00:00:00,
2013-09-13 20:05:00,55.6,47.8,30.05,West,270,3.1,5.4,75,0.00,,,0.11,pywws,2013-09-14 00:05:00,
2013-09-13 20:10:00,55.6,48.1,30.06,North,0,1.6,2.2,76,0.00,,,0.11,pywws,2013-09-14 00:10:00,
2013-09-13 20:15:00,55.6,48.1,30.06,North,0,1.6,5.4,76,0.00,,,0.11,pywws,2013-09-14 00:15:00,
2013-09-13 20:20:00,55.4,47.6,30.06,North,0,1.6,3.1,75,0.00,,,0.11,pywws,2013-09-14 00:20:00,
2013-09-13 20:25:00,55.4,47.6,30.06,North,0,2.2,3.1,75,0.00,,,0.11,pywws,2013-09-14 00:25:00,
2013-09-13 20:30:00,55.4,47.6,30.06,NW,315,2.2,3.8,75,0.00,,,0.11,pywws,2013-09-14 00:30:00,
2013-09-13 20:35:00,55.4,47.6,30.06,NW,315,0.0,0.0,75,0.00,,,0.11,pywws,2013-09-14 00:35:00,
2013-09-13 20:40:00,55.4,47.3,30.07,North,0,0.7,3.1,74,0.00,,,0.11,pywws,2013-09-14 00:40:00,
2013-09-13 20:45:00,55.4,47.3,30.06,North,0,2.2,3.1,74,0.00,,,0.11,pywws,2013-09-14 00:45:00,
2013-09-13 20:50:00,55.4,47.6,30.07,North,0,3.1,6.9,75,0.00,,,0.11,pywws,2013-09-14 00:50:00,
2013-09-13 20:55:00,55.4,47.6,30.07,North,0,1.6,3.8,75,0.00,,,0.11,pywws,2013-09-14 00:55:00,
2013-09-13 21:00:00,55.4,48.0,30.07,North,0,2.2,3.8,76,0.00,,,0.11,pywws,2013-09-14 01:00:00,
2013-09-13 21:05:00,55.2,48.1,30.07,North,0,2.2,3.8,77,0.00,,,0.11,pywws,2013-09-14 01:05:00,
2013-09-13 21:10:00,55.0,48.3,30.07,NW,315,3.1,6.0,78,0.00,,,0.11,pywws,2013-09-14 01:10:00,
2013-09-13 21:15:00,54.7,48.6,30.07,North,0,3.1,4.5,80,0.00,,,0.11,pywws,2013-09-14 01:15:00,
2013-09-13 21:20:00,54.7,48.6,30.07,North,0,0.0,0.7,80,0.00,,,0.11,pywws,2013-09-14 01:20:00,
2013-09-13 21:25:00,54.7,49.0,30.07,North,0,0.7,2.2,81,0.00,,,0.11,pywws,2013-09-14 01:25:00,
2013-09-13 21:30:00,54.9,48.8,30.07,East,90,1.6,3.1,80,0.00,,,0.11,pywws,2013-09-14 01:30:00,
2013-09-13 21:35:00,54.7,47.6,30.08,North,0,3.1,6.0,77,0.00,,,0.11,pywws,2013-09-14 01:35:00,
2013-09-13 21:40:00,54.7,47.3,30.07,West,270,1.6,3.1,76,0.00,,,0.11,pywws,2013-09-14 01:40:00,
2013-09-13 21:45:00,54.9,47.1,30.07,West,270,1.6,3.8,75,0.00,,,0.11,pywws,2013-09-14 01:45:00,
2013-09-13 21:50:00,54.9,46.4,30.07,NW,315,1.6,3.1,73,0.00,,,0.11,pywws,2013-09-14 01:50:00,
2013-09-13 21:55:00,55.0,46.2,30.07,North,0,2.2,5.4,72,0.00,,,0.11,pywws,2013-09-14 01:55:00,
2013-09-13 22:00:00,54.9,46.0,30.08,NE,45,1.6,4.5,72,0.00,,,0.11,pywws,2013-09-14 02:00:00,
2013-09-13 22:05:00,54.5,45.7,30.07,SW,225,2.2,3.1,72,0.00,,,0.11,pywws,2013-09-14 02:05:00,
2013-09-13 22:10:00,54.5,46.0,30.08,NE,45,2.2,4.5,73,0.00,,,0.11,pywws,2013-09-14 02:10:00,
2013-09-13 22:15:00,54.5,46.4,30.08,North,0,0.7,3.8,74,0.00,,,0.11,pywws,2013-09-14 02:15:00,
2013-09-13 22:20:00,54.5,46.0,30.08,NE,45,1.6,3.8,73,0.00,,,0.11,pywws,2013-09-14 02:20:00,
2013-09-13 22:25:00,54.5,46.0,30.08,NW,315,0.0,1.6,73,0.00,,,0.11,pywws,2013-09-14 02:25:00,
2013-09-13 22:30:00,54.5,46.0,30.08,NE,45,0.7,1.6,73,0.00,,,0.11,pywws,2013-09-14 02:30:00,
2013-09-13 22:35:00,54.5,46.0,30.08,NE,45,0.7,1.6,73,0.00,,,0.11,pywws,2013-09-14 02:35:00,
2013-09-13 22:40:00,54.7,46.2,30.08,North,0,0.0,0.7,73,0.00,,,0.11,pywws,2013-09-14 02:40:00,
2013-09-13 22:45:00,54.9,46.0,30.08,North,0,1.6,2.2,72,0.00,,,0.11,pywws,2013-09-14 02:45:00,
2013-09-13 22:50:00,54.9,45.6,30.08,North,0,3.1,5.4,71,0.00,,,0.11,pywws,2013-09-14 02:50:00,
2013-09-13 22:55:00,54.5,45.3,30.08,North,0,1.6,3.1,71,0.00,,,0.11,pywws,2013-09-14 02:55:00,
2013-09-13 23:00:00,54.5,44.5,30.08,North,0,1.6,3.1,69,0.00,,,0.11,pywws,2013-09-14 03:00:00,
2013-09-13 23:05:00,54.5,44.5,30.07,South,180,0.0,1.6,69,0.00,,,0.11,pywws,2013-09-14 03:05:00,
2013-09-13 23:10:00,54.5,44.5,30.08,North,0,0.7,2.2,69,0.00,,,0.11,pywws,2013-09-14 03:10:00,
2013-09-13 23:15:00,54.5,44.5,30.08,East,90,0.0,0.7,69,0.00,,,0.11,pywws,2013-09-14 03:15:00,
2013-09-13 23:20:00,54.5,44.9,30.08,North,0,1.6,3.1,70,0.00,,,0.11,pywws,2013-09-14 03:20:00,
2013-09-13 23:25:00,54.5,44.9,30.08,North,0,1.6,3.8,70,0.00,,,0.11,pywws,2013-09-14 03:25:00,
2013-09-13 23:30:00,54.3,45.1,30.08,NW,315,1.6,2.2,71,0.00,,,0.11,pywws,2013-09-14 03:30:00,
2013-09-13 23:35:00,54.1,44.6,30.08,NW,315,2.2,6.0,70,0.00,,,0.11,pywws,2013-09-14 03:35:00,
2013-09-13 23:40:00,54.1,44.6,30.08,North,0,3.1,6.0,70,0.00,,,0.11,pywws,2013-09-14 03:40:00,
2013-09-13 23:45:00,54.1,44.2,30.08,South,180,2.2,6.0,69,0.00,,,0.11,pywws,2013-09-14 03:45:00,
2013-09-13 23:50:00,54.1,43.8,30.08,North,0,2.2,3.1,68,0.00,,,0.11,pywws,2013-09-14 03:50:00,
2013-09-13 23:55:00,54.0,42.9,30.08,North,0,0.7,2.2,66,0.00,,,0.11,pywws,2013-09-14 03:55:00,